OBJECT N, 64888

Orbit data source: Space-Track

You're viewing an Uncataloged Satellite

Recently launched and/or uncataloged satellites may have evolving metadata. Metadata may include but not limited to: Owner, Maufacturer, Bus, Motor, and Mission.

OBJECT N, 64888 is a satellite in SSO that was launched on Fri, 25 Jul 2025 UTC via a SOYUZ-2-1B launch vehicle from the Vostochny Cosmodrome (VOSTO). Unknown objects in Earth's orbit typically refer to objects detected orbiting the Earth but have not yet been identified or cataloged. These objects could be anything from previously untracked satellites, spent rocket stages, debris from satellite collisions, or even natural meteoroids temporarily captured by Earth's gravity.

Loading next visibility...
Identifier
64888, 2025-155N
Orbit
SSO
Country
Flag of TBDTBD
Related business
None
Manufacturer
Unknown
Mission
Operational Commercial Technology
Bus & Motor
Unknown
Mass
Unknown
Launch date (UTC)
2025-07-25 (9 months ago)
Launch vehicle
SOYUZ-2-1B
Launch site
Vostochny Cosmodrome (VOSTO)
Object type
Unknown
Shape & HBR
Box, 1.1 m
Radar Cross Section
0.035 m², Small (<0.1 m²)

Expand to show TLE details & history
Last TLE update: 7 hours ago

TLE from 7 hours ago
0 OBJECT N
1 64888U 25155N   26121.20394744  .00046463  00000-0  12003-2 0  9998
2 64888  97.4453  91.3171 0005180 355.7662   4.3538 15.38971698 73705
Epoch: 2026-05-01T04:53Z
TLE epoch observation values (Epoch: 2026-05-01T04:53:41.058Z)
Latitude
-0.0001°
Longitude
158.75647°
Altitude
448.737 km
Speed
7.645 km/s
True Right ascension
06h 05m 16s
True Declination
0° 00' 00"
Sunlit
Object was in daylight at epoch
Visualization orbit readout
Latitude
Unknown
Longitude
Unknown
Altitude
Unknown
Speed
Unknown
Apparent Right ascension
Unknown
Apparent Declination
Unknown
Sunlit
N/A
Visualization observer readout
Local Sidereal Time
19:21:03
Azimuth
Unknown
Elevation
Unknown
Doppler factor
Unknown
Orbital elements
Apogee altitude
449.626 km
Perigee altitude
442.556 km
Semi-major axis
6,824.228 km
Eccentricity
0.00052
Inclination
97.4453°
RAAN
91.3171°
Arg. of periapsis
355.7662°
True anomaly
4.35831°
Mean anomaly
4.3538°
Eccentric anomaly
4.35605°
Mean motion
3.85002 °/min
Orbital period
93.51 mins
BSTAR
0.0012003
Loading maneuver chart data...
Computing Atmospheric mass density...
Loading historical data...
Loading historical data...
Loading historical data...
Loading historical data...
Loading historical data...
Loading historical data...
Loading historical data...

Documentation

Showing up to 5 results
|